Location: *
(37.5724°S, 58.0067°E)
Time: 11:18:22
(UTC+00:00)

In-Cosmos 22 - Pass Details

Date: 26 September 2020
Orbit: 785 x 876 km, 81.2° (Epoch: 29 October)

Event Time Altitude Azimuth Distance (km) Brightness Sun altitude
Rises 15:27:53 0° 4° (N) 3,390 7.1 -16.4°
Reaches altitude 10° 15:30:17 10° 7° (N) 2,476 6.4 -16.9°
Maximum altitude 15:35:49 59° 85° (E) 1,001 4.2 -17.9°
Drops below altitude 10° 15:41:31 10° 163° (SSE) 2,552 6.7 -19.0°
Sets 15:44:01 0° 166° (SSE) 3,502 7.5 -19.5°
